This demonstration page uses our WeatherBlox Daily Observations layout. Learn more.

Hourly Observations for December 23, 2016

Temp ( °F °C ) Dew Point ( °F °C ) Humidity (%) Winds ( mph kmh ) Pressure ( in mb ) Visibility ( mi km ) Precip ( " mm )
12:15 am 00:15 Cloudy 33 0.3 30 -1 91 91 S 13 20 30.21 1023 10 16.0934 0 0
12:35 am 00:35 Cloudy 33 0.5 30 -1.2 89 89 S 16 26 30.15 1021 10 16.0934 0 0
12:55 am 00:55 Cloudy 33 0.5 30 -1.3 88 88 SSE 14 22 30.15 1021 10 16.0934 0 0
1:15 am 01:15 Cloudy 32 0.1 29 -1.5 89 89 SSE 14 22 30.12 1020 10 16.0934 0 0
1:35 am 01:35 Cloudy 32 0.2 29 -1.4 89 89 SSE 13 20 30.12 1020 10 16.0934 0 0
1:55 am 01:55 Cloudy 33 0.5 28 -2 84 84 S 14 22 30.09 1019 10 16.0934 0 0
2:15 am 02:15 Cloudy 33 0.5 27 -2.7 79 79 SSE 13 20 30.09 1019 10 16.0934 0 0
2:35 am 02:35 Cloudy 33 0.5 25 -3.8 73 73 S 12 19 30.06 1018 10 16.0934 0 0
2:55 am 02:55 Cloudy 33 0.7 22 -5.7 63 63 S 12 19 30.06 1018 10 16.0934 0 0
3:15 am 03:15 Cloudy 33 0.6 20 -6.6 59 59 S 10 17 30.06 1018 10 16.0934 0 0
3:35 am 03:35 Cloudy 33 0.5 20 -6.6 59 59 S 17 28 30.03 1017 10 16.0934 0 0
3:55 am 03:55 Cloudy with Light Rain 32 0 24 -4.2 74 74 SSE 21 33 30 1016 7 11.26538 0 0
4:15 am 04:15 Cloudy with Light Wintry Mix 32 0 26 -3.4 78 78 SSE 20 31 29.97 1015 5 8.0467 0.02 0.508
4:35 am 04:35 Cloudy with Light Wintry Mix 32 -0.1 26 -3.5 78 78 SSE 16 26 29.94 1014 7 11.26538 0.03 0.762
4:55 am 04:55 Cloudy with Light Wintry Mix 32 -0.1 26 -3.2 80 80 S 18 30 29.91 1013 10 16.0934 0.04 1.016
5:15 am 05:15 Cloudy with Light Wintry Mix 32 -0.2 26 -3.4 79 79 S 15 24 29.91 1013 10 16.0934 0 0
5:35 am 05:35 Cloudy with Light Wintry Mix 31 -0.4 25 -3.8 78 78 S 13 20 29.88 1012 10 16.0934 0 0
5:55 am 05:55 Cloudy with Light Wintry Mix 31 -0.5 25 -4 77 77 S 14 22 29.91 1013 10 16.0934 0 0
6:15 am 06:15 Cloudy with Light Wintry Mix 31 -0.3 25 -3.7 78 78 S 9 15 29.91 1013 10 16.0934 0 0
6:35 am 06:35 Cloudy with Light Wintry Mix 31 -0.5 26 -3.5 80 80 S 12 19 29.91 1013 10 16.0934 0 0
6:55 am 06:55 Cloudy with Light Wintry Mix 31 -0.5 27 -3 83 83 S 9 15 29.91 1013 10 16.0934 0.01 0.254
7:15 am 07:15 Cloudy with Light Wintry Mix 31 -0.3 28 -2.5 85 85 S 12 19 29.91 1013 7 11.26538 0.01 0.254
7:35 am 07:35 Cloudy with Light Wintry Mix 31 -0.4 27 -2.6 85 85 S 9 15 29.88 1012 10 16.0934 0.02 0.508
7:55 am 07:55 Cloudy with Light Wintry Mix 31 -0.4 28 -2.5 86 86 S 8 13 29.91 1013 7 11.26538 0.02 0.508
8:15 am 08:15 Cloudy with Light Wintry Mix 31 -0.5 28 -2.5 87 87 S 8 13 29.88 1012 7 11.26538 0 0
8:35 am 08:35 Cloudy with Light Wintry Mix 31 -0.5 28 -2.1 89 89 S 8 13 29.88 1012 10 16.0934 0 0
8:55 am 08:55 Cloudy with Light Wintry Mix 31 -0.5 28 -2.1 89 89 S 8 13 29.88 1012 10 16.0934 0 0
9:15 am 09:15 Cloudy with Light Wintry Mix 31 -0.3 28 -2 88 88 S 6 9 29.88 1012 5 8.0467 0.01 0.254
9:35 am 09:35 Cloudy with Light Wintry Mix 31 -0.3 28 -2 88 88 S 5 7 29.88 1012 10 16.0934 0.01 0.254
9:55 am 09:55 Cloudy 32 -0.1 29 -1.8 88 88 S 6 9 29.88 1012 10 16.0934 0.01 0.254
10:15 am 10:15 Cloudy 32 0 28 -2 87 87 SSW 7 11 29.88 1012 10 16.0934 0 0
10:35 am 10:35 Cloudy with Light Wintry Mix 32 0 29 -1.9 87 87 SSW 5 7 29.88 1012 10 16.0934 0 0
10:55 am 10:55 Cloudy with Light Wintry Mix 32 0 29 -1.6 89 89 SW 5 7 29.88 1012 10 16.0934 0 0
11:15 am 11:15 Cloudy with Light Wintry Mix 32 0 29 -1.6 89 89 SW 5 7 29.88 1012 7 11.26538 0 0
11:35 am 11:35 Cloudy with Light Wintry Mix 32 0 29 -1.5 90 90 SSW 5 7 29.88 1012 5 8.0467 0.02 0.508
11:55 am 11:55 Cloudy with Light Wintry Mix 32 0 29 -1.4 90 90 Calm 29.88 1012 5 8.0467 0.03 0.762
12:15 pm 12:15 Cloudy with Light Wintry Mix 32 0 30 -1.1 92 92 Calm 29.88 1012 10 16.0934 0.01 0.254
12:35 pm 12:35 Cloudy 32 0 30 -1 93 93 Calm 29.88 1012 10 16.0934 0.01 0.254
12:55 pm 12:55 Partly Cloudy 32 0.1 31 -0.7 94 94 W 3 6 29.88 1012 10 16.0934 0.01 0.254
1:15 pm 13:15 Sunny 33 0.3 31 -0.6 94 94 W 6 9 29.85 1011 10 16.0934 0 0
1:35 pm 13:35 Sunny 33 0.7 32 -0.2 94 94 WNW 9 15 29.83 1010 10 16.0934 0 0
1:55 pm 13:55 Mostly Cloudy 34 1.1 32 0 92 92 WNW 13 20 29.83 1010 10 16.0934 0 0
2:15 pm 14:15 Cloudy 35 1.5 33 0.3 92 92 WNW 10 17 29.83 1010 10 16.0934 0 0
2:35 pm 14:35 Mostly Cloudy 37 2.5 34 1.2 91 91 WNW 14 22 29.85 1011 10 16.0934 0 0
2:55 pm 14:55 Partly Cloudy 39 3.7 36 2 89 89 WNW 13 20 29.85 1011 10 16.0934 0 0
3:15 pm 15:15 Sunny 40 4.6 37 2.5 86 86 WNW 12 19 29.83 1010 10 16.0934 0 0
3:35 pm 15:35 Sunny 42 5.5 37 2.8 83 83 W 8 13 29.83 1010 10 16.0934 0 0
3:55 pm 15:55 Sunny 42 5.8 37 3 82 82 W 6 9 29.83 1010 10 16.0934 0 0
4:15 pm 16:15 Sunny 43 6 37 2.9 81 81 W 6 9 29.85 1011 10 16.0934 0 0
4:35 pm 16:35 Sunny 42 5.4 37 2.5 82 82 W 3 6 29.85 1011 10 16.0934 0 0
4:55 pm 16:55 Sunny 41 5 36 2.2 82 82 W 3 6 29.85 1011 10 16.0934 0 0
5:15 pm 17:15 Sunny 39 3.9 35 1.7 86 86 W 5 7 29.88 1012 10 16.0934 0 0
5:35 pm 17:35 Clear 38 3.5 34 1.3 86 86 WNW 5 7 29.88 1012 10 16.0934 0 0
5:55 pm 17:55 Clear 38 3.3 32 0 79 79 WNW 5 7 29.91 1013 10 16.0934 0 0
6:15 pm 18:15 Clear 36 2.4 29 -1.6 75 75 WNW 6 9 29.91 1013 10 16.0934 0 0
6:35 pm 18:35 Clear 35 1.4 27 -2.7 74 74 WNW 6 9 29.97 1015 10 16.0934 0 0
6:55 pm 18:55 Clear 33 0.5 27 -2.8 79 79 NW 5 7 29.97 1015 10 16.0934 0 0
7:15 pm 19:15 Clear 32 0 26 -3.1 80 80 WNW 5 7 29.97 1015 10 16.0934 0 0
7:35 pm 19:35 Clear 31 -0.5 26 -3.4 81 81 WNW 7 11 30 1016 10 16.0934 0 0
7:55 pm 19:55 Clear 32 -0.1 24 -4.2 74 74 W 5 7 30 1016 10 16.0934 0 0
8:15 pm 20:15 Clear 31 -0.5 24 -4.3 76 76 W 3 6 30 1016 10 16.0934 0 0
8:35 pm 20:35 Clear 28 -2 23 -4.9 81 81 W 3 6 30.03 1017 10 16.0934 0 0
8:55 pm 20:55 Clear 28 -2.2 24 -4.7 83 83 WNW 5 7 30.03 1017 10 16.0934 0 0
9:15 pm 21:15 Clear 27 -3 23 -5.2 85 85 WNW 3 6 30.06 1018 10 16.0934 0 0
9:35 pm 21:35 Clear 27 -2.7 21 -6 78 78 W 5 7 30.06 1018 10 16.0934 0 0
9:55 pm 21:55 Clear 27 -3 20 -6.5 77 77 W 7 11 30.09 1019 10 16.0934 0 0
10:15 pm 22:15 Clear 28 -2.3 19 -7.3 69 69 WNW 6 9 30.09 1019 10 16.0934 0 0
10:35 pm 22:35 Clear 27 -2.6 19 -7.3 70 70 WNW 6 9 30.09 1019 10 16.0934 0 0
10:55 pm 22:55 Clear 25 -3.9 17 -8.1 73 73 WNW 3 6 30.12 1020 10 16.0934 0 0
11:15 pm 23:15 Clear 24 -4.6 17 -8.1 77 77 WNW 3 6 30.12 1020 10 16.0934 0 0
11:35 pm 23:35 Clear 27 -2.6 18 -7.7 68 68 W 3 6 30.12 1020 10 16.0934 0 0
11:55 pm 23:55 Clear 22 -5.3 16 -8.9 76 76 WNW 3 6 30.15 1021 10 16.0934 0 0

Powered by AerisWeather